SCP
4 5 3 1 2 2 1 2 2 2 2 1 2 1 1 2 1 1 1 0 1 0
5 5 3 1 1 1 2 2 2 2 2 1 1 1 1 1 1 1 0 0 1 0
0 0 1 -0 1 1 1 1 2 1 1 1 1 0 1 0 0 0 0 0 0 0
0 0 0 0 1 1 1 1 1 1 1 1 0 0 0 0 0 0 0 0 0 0
0 0 1 0 0 1 1 1 1 1 0 0 0 0 0 0 0 0 0 0 0 0
0 1 2 1 1 1 1 0 0 0 0 0 0 0 0 0 0 0 0 0 0 0
1 1 1 1 1 1 1 0 0 0 0 0 0 0 0 0 0 0 0 0 0 0
1 1 1 1 1 0 0 0 0 0 0 0 0 0 0 0 0 0 0 0 0 0
1 1 1 1 1 0 0 0 0 0 0 0 0 0 0 0 0 0 0 0 0 0
1 0 0 0 0 0 0 0 0 0 0 0 0 0 0 0 0 0 0 0 0 0
0 0 0 0 -0 0 0 0 0 0 0 0 0 0 0 0 0 0 0 0 0 0
0 0 -0 -0 0 0 0 0 0 0 0 0 0 0 0 0 0 0 0 0 0 0
0 0 0 0 0 0 0 0 0 0 0 0 0 0 0 0 0 0 0 0 0 0
0 0 0 0 0 0 0 0 0 0 0 0 0 0 0 0 0 0 0 0 0 0
Wind_Speed_500mb
35 29 23 28 29 31 25 25 30 27 28 28 26 27 27 32 28 24 16 16 21 22
38 18 21 32 36 34 32 27 24 19 22 18 20 22 27 24 13 15 15 17 31 24
36 16 34 48 40 35 30 24 23 18 19 19 21 16 9 4 14 13 17 19 23 21
60 27 53 47 42 36 27 24 17 17 15 11 10 8 6 7 13 14 16 17 17 18
54 59 56 42 32 27 20 13 12 11 13 9 4 3 5 8 11 11 15 17 20 24
24 45 38 32 27 14 14 18 18 17 9 5 5 6 7 8 9 14 19 24 27 31
20 24 26 21 20 25 24 21 16 13 3 4 8 10 12 13 18 22 27 31 33 34
17 15 19 23 26 22 16 14 9 8 5 9 11 17 16 19 23 26 32 35 39 38
24 18 13 15 15 14 9 3 4 4 11 15 18 26 28 33 34 33 32 43 45 46
22 19 9 5 2 2 6 7 9 9 16 22 27 33 33 34 33 34 33 42 37 37
18 9 15 13 3 10 14 11 13 17 24 29 32 33 37 34 32 31 44 30 32 34
15 12 5 3 7 5 8 13 18 23 24 25 28 29 31 36 33 36 37 35 38 34
5 3 7 7 3 8 6 13 11 15 22 23 24 27 28 34 30 32 30 25 27 20
8 8 6 3 3 6 5 11 20 25 23 30 21 20 28 30 22 25 27 28 28 25
Wind_Direction_500mb
203 217 233 260 252 254 244 237 241 230 240 242 237 244 257 278 272 272 260 268 265 274
184 194 268 273 274 263 247 248 228 222 234 226 241 248 267 267 258 262 280 287 295 285
176 243 270 273 260 259 252 227 228 230 228 242 246 254 244 264 299 288 285 278 275 283
165 298 276 258 266 266 248 244 223 228 221 207 212 213 265 276 282 290 284 292 295 294
251 246 212 242 244 236 228 207 217 176 158 140 127 253 287 281 276 295 296 294 296 298
198 175 204 220 216 188 168 150 142 151 157 175 224 281 282 278 287 293 295 294 292 294
187 201 197 182 169 162 159 145 157 141 121 319 313 284 270 282 294 296 296 293 291 288
165 167 162 151 151 151 144 145 148 88 318 301 293 281 242 282 286 290 296 298 297 292
124 128 150 142 153 134 113 121 7 315 276 280 282 277 272 280 281 292 301 299 296 290
100 109 83 42 60 92 227 260 284 262 273 278 278 275 277 281 282 299 295 292 292 288
118 30 354 358 166 202 226 258 268 277 272 278 279 279 282 281 291 305 300 280 293 286
105 110 111 99 196 163 218 250 287 291 288 289 288 284 281 291 299 299 300 292 297 290
111 147 131 127 187 261 291 298 278 306 305 305 299 295 303 309 306 303 305 304 310 320
119 109 98 61 333 303 325 318 318 316 304 298 300 314 336 337 333 317 313 309 299 313
Wind_Speed_850mb
35 29 23 28 29 31 25 25 30 27 28 28 26 27 27 32 28 24 16 16 21 22
38 18 21 32 36 34 32 27 24 19 22 18 20 22 27 24 13 15 15 17 31 24
36 16 34 48 40 35 30 24 23 18 19 19 21 16 9 4 14 13 17 19 23 21
60 27 53 47 42 36 27 24 17 17 15 11 10 8 6 7 13 14 16 17 17 18
54 59 56 42 32 27 20 13 12 11 13 9 4 3 5 8 11 11 15 17 20 24
24 45 38 32 27 14 14 18 18 17 9 5 5 6 7 8 9 14 19 24 27 31
20 24 26 21 20 25 24 21 16 13 3 4 8 10 12 13 18 22 27 31 33 34
17 15 19 23 26 22 16 14 9 8 5 9 11 17 16 19 23 26 32 35 39 38
24 18 13 15 15 14 9 3 4 4 11 15 18 26 28 33 34 33 32 43 45 46
22 19 9 5 2 2 6 7 9 9 16 22 27 33 33 34 33 34 33 42 37 37
18 9 15 13 3 10 14 11 13 17 24 29 32 33 37 34 32 31 44 30 32 34
15 12 5 3 7 5 8 13 18 23 24 25 28 29 31 36 33 36 37 35 38 34
5 3 7 7 3 8 6 13 11 15 22 23 24 27 28 34 30 32 30 25 27 20
8 8 6 3 3 6 5 11 20 25 23 30 21 20 28 30 22 25 27 28 28 25
Wind_Direction_850mb
203 217 233 260 252 254 244 237 241 230 240 242 237 244 257 278 272 272 260 268 265 274
184 194 268 273 274 263 247 248 228 222 234 226 241 248 267 267 258 262 280 287 295 285
176 243 270 273 260 259 252 227 228 230 228 242 246 254 244 264 299 288 285 278 275 283
165 298 276 258 266 266 248 244 223 228 221 207 212 213 265 276 282 290 284 292 295 294
251 246 212 242 244 236 228 207 217 176 158 140 127 253 287 281 276 295 296 294 296 298
198 175 204 220 216 188 168 150 142 151 157 175 224 281 282 278 287 293 295 294 292 294
187 201 197 182 169 162 159 145 157 141 121 319 313 284 270 282 294 296 296 293 291 288
165 167 162 151 151 151 144 145 148 88 318 301 293 281 242 282 286 290 296 298 297 292
124 128 150 142 153 134 113 121 7 315 276 280 282 277 272 280 281 292 301 299 296 290
100 109 83 42 60 92 227 260 284 262 273 278 278 275 277 281 282 299 295 292 292 288
118 30 354 358 166 202 226 258 268 277 272 278 279 279 282 281 291 305 300 280 293 286
105 110 111 99 196 163 218 250 287 291 288 289 288 284 281 291 299 299 300 292 297 290
111 147 131 127 187 261 291 298 278 306 305 305 299 295 303 309 306 303 305 304 310 320
119 109 98 61 333 303 325 318 318 316 304 298 300 314 336 337 333 317 313 309 299 313